Regional Weather Roundup
Issued by NWS

Home | Current Version | Previous Version | Text Only | Print | Product List | Glossary On
Versions: 1 2 3 4 5 6 7 8 9 10 11 12 13 14 15 16 17 18 19 20 21 22 23 24 25 26 27 28 29 30 31 32 33 34 35 36 37 38 39 40 41 42 43 44 45 46 47 48 49 50
000
ASUS44 KFWD 060615
RWRTX
NORTH TEXAS HOURLY WEATHER ROUNDUP
NATIONAL WEATHER SERVICE FORT WORTH TX
1200 AM CST SAT FEB 06 2016

NOTE: "FAIR" INDICATES FEW OR NO CLOUDS BELOW 12,000 FEET WITH NO
SIGNIFICANT WEATHER AND/OR OBSTRUCTIONS TO VISIBILITY.

TXZ118-119-060700-
DALLAS/FORT WORTH METROPLEX

CITY           SKY/WX    TMP DP  RH WIND       PRES   REMARKS
DFW AIRPORT    CLOUDY    49  22  34 S12       30.27R
6HR MIN TEMP:  47; 6HR MAX TEMP:  53;

DALLAS LOVE    CLOUDY    48  22  35 S10       30.27S
6HR MIN TEMP:  47; 6HR MAX TEMP:  53;

FTW MEACHAM    LGT RAIN  49  33  54 S9        30.27R
6HR MIN TEMP:  48; 6HR MAX TEMP:  55; 6HR PCP: TRACE;

DAL-EXECUTIVE  CLOUDY    46  23  40 S10       30.26R
6HR MIN TEMP:  45; 6HR MAX TEMP:  52;

FTW-ALLIANCE   LGT RAIN  48  28  46 S13G18    30.27R
6HR MIN TEMP:  47; 6HR MAX TEMP:  53; 6HR PCP: TRACE;

FTW-NAS-JRB    LGT RAIN  47  33  58 S9        30.27S
6HR MIN TEMP:  47; 6HR MAX TEMP:  55; 6HR PCP: TRACE;

FTW-SPINKS     LGT RAIN  47  32  57 SW8       30.30R
6HR MIN TEMP:  45; 6HR MAX TEMP:  52;

ARLINGTON      CLOUDY    50  23  34 S12       30.28R
6HR MIN TEMP:  48; 6HR MAX TEMP:  55;

GRAND PRAIRIE  CLOUDY    49  22  35 S9        30.29R
6HR MIN TEMP:  48; 6HR MAX TEMP:  54;

ADDISON        CLOUDY    49  24  37 S6        30.28S
MESQUITE       CLOUDY    45  26  48 SE8       30.28F
6HR MIN TEMP:  43; 6HR MAX TEMP:  52;

LANCASTER      CLOUDY    43  25  48 SE5       30.29S
6HR MIN TEMP:  40; 6HR MAX TEMP:  52;

$$

TXZ091>094-102>105-117-120-121-131>134-060700-
NORTH CENTRAL TEXAS

CITY           SKY/WX    TMP DP  RH WIND       PRES   REMARKS
SHRMAN/DENISON CLOUDY    47  21  36 SE8       30.28F
6HR MIN TEMP:  47; 6HR MAX TEMP:  52;

GAINESVILLE    CLOUDY    45  25  45 SE7       30.27F
6HR MIN TEMP:  45; 6HR MAX TEMP:  52;

BOWIE          CLOUDY    46  25  43 SE8       30.21S
6HR MIN TEMP:  46; 6HR MAX TEMP:  52;

BRIDGEPORT     CLOUDY    47  34  60 S13G21    30.23F
6HR MIN TEMP:  47; 6HR MAX TEMP:  54;

DECATUR        PTCLDY    46  25  43 SE10G17   30.22F
6HR MIN TEMP:  46; 6HR MAX TEMP:  53;

DENTON         CLOUDY    48  25  40 S10       30.27R
6HR MIN TEMP:  47; 6HR MAX TEMP:  52;

MCKINNEY       CLOUDY    46  26  45 SE6       30.27S
6HR MIN TEMP:  45; 6HR MAX TEMP:  51;

GREENVILLE     CLOUDY    41  25  52 SE6       30.28F WCI  37
ROCKWALL       CLOUDY    45  23  42 S6        30.26F
6HR MIN TEMP:  44; 6HR MAX TEMP:  51;

TERRELL        CLOUDY    44  23  43 SE7       30.28F
6HR MIN TEMP:  42; 6HR MAX TEMP:  50;

WAXAHACHIE     CLOUDY    44  26  49 SE9       30.28S WCI  39
6HR MIN TEMP:  44; 6HR MAX TEMP:  51;

CLEBURNE       LGT RAIN  45  37  76 S9G21     30.29F WCI  40
GRANBURY       CLOUDY    46  38  75 SE5       30.25F
6HR MIN TEMP:  46; 6HR MAX TEMP:  56;

$$

TXZ083>090-098>101-113>116-127>130-139>142-154-155-060700-
WESTERN NORTH TEXAS

CITY           SKY/WX    TMP DP  RH WIND       PRES   REMARKS
WICHITA FALLS  CLEAR     40  23  50 W8        30.18F WCI  34
6HR MIN TEMP:  39; 6HR MAX TEMP:  54; 6HR PCP:  0.01;

WF-KICKAPOO    CLEAR     41  24  49 SW3       30.20F
6HR MIN TEMP:  40; 6HR MAX TEMP:  55;

VERNON         CLEAR     41  28  60 N17       30.23R WCI  32
6HR MIN TEMP:  36; 6HR MAX TEMP:  47;

ABILENE        CLEAR     41  20  43 W14       30.29R WCI  33
6HR MIN TEMP:  40; 6HR MAX TEMP:  56;

ABILENE-DYESS  CLEAR     41  19  41 NW14      30.29R WCI  34
6HR MIN TEMP:  40; 6HR MAX TEMP:  57;

BRECKENRIDGE   CLEAR     43  21  41 W12       30.25S WCI  37
6HR MIN TEMP:  43; 6HR MAX TEMP:  58;

GRAHAM         CLEAR     40  23  49 SW7       30.21S WCI  36
6HR MIN TEMP:  40; 6HR MAX TEMP:  55;

MINERAL WELLS  CLOUDY    44  35  70 S9        30.20F WCI  39
6HR MIN TEMP:  44; 6HR MAX TEMP:  55; 6HR PCP: TRACE;

STEPHENVILLE   PTCLDY    44  37  78 CALM      30.26F
6HR MIN TEMP:  44; 6HR MAX TEMP:  55; 6HR PCP:  0.03;

COMANCHE       CLEAR     46  21  37 W12G17    30.27S
6HR MIN TEMP:  46; 6HR MAX TEMP:  53;

BROWNWOOD      CLEAR     45  18  33 NW13      30.30S WCI  38
COLEMAN        CLEAR     44  18  36 NW8       30.30S WCI  39
6HR MIN TEMP:  44; 6HR MAX TEMP:  57;

$$

TXZ143>147-156>162-174-175-060700-
CENTRAL TEXAS

CITY           SKY/WX    TMP DP  RH WIND       PRES   REMARKS
WACO           CLOUDY    50  32  50 S17       30.28S
6HR MIN TEMP:  44; 6HR MAX TEMP:  52;

WACO-MCGREGOR  LGT RAIN  48  32  53 S15       30.28S
6HR MIN TEMP:  46; 6HR MAX TEMP:  54; 6HR PCP: TRACE;

HILLSBORO      DRIZZLE   46  26  46 SE9G17    30.28R
6HR MIN TEMP:  45; 6HR MAX TEMP:  52;

CORSICANA      MOCLDY    45  25  45 S14       30.30F WCI  38
6HR MIN TEMP:  44; 6HR MAX TEMP:  52;

MEXIA          PTCLDY    43  29  58 SE12      30.30S WCI  37
6HR MIN TEMP:  41; 6HR MAX TEMP:  51;

HEARNE         CLEAR     46  34  64 SE8       30.33S
6HR MIN TEMP:  46; 6HR MAX TEMP:  55;

CAMERON        PTCLDY    48  37  64 S12       30.31R
6HR MIN TEMP:  48; 6HR MAX TEMP:  55;

TEMPLE         CLOUDY    49  33  54 S15       30.28F
6HR MIN TEMP:  46; 6HR MAX TEMP:  54;

KILLEEN        CLOUDY    46  39  76 SW7       30.29R
6HR MIN TEMP:  44; 6HR MAX TEMP:  51; 6HR PCP: TRACE;

KILLEEN-SKYLRK LGT RAIN  48  36  63 SW12      30.30R
6HR MIN TEMP:  48; 6HR MAX TEMP:  55; 6HR PCP: TRACE;

FORT HOOD      LGT RAIN  48  37  64 W10G20    30.28R
6HR MIN TEMP:  48; 6HR MAX TEMP:  54; 6HR PCP: TRACE;

GATESVILLE     CLOUDY    46  37  71 SW10      30.30F
HAMILTON       MOCLDY    49  32  52 W10       30.27S
6HR MIN TEMP:  44; 6HR MAX TEMP:  54;

LAMPASAS       CLOUDY    48  37  67 W7        30.29S
6HR MIN TEMP:  43; 6HR MAX TEMP:  55;

$$

TXZ095>097-106>112-122>126-135>138-148>153-164>167-060700-
EAST TEXAS

CITY           SKY/WX    TMP DP  RH WIND       PRES   REMARKS
PARIS          CLOUDY    37  19  48 SE10      30.30S WCI  30
6HR MIN TEMP:  37; 6HR MAX TEMP:  46;

SULPHUR SPRNGS MOCLDY    41  21  46 CALM      30.32S
6HR MIN TEMP:  37; 6HR MAX TEMP:  51;

MOUNT PLEASANT CLEAR     36  24  60 CALM      30.33F
6HR MIN TEMP:  33; 6HR MAX TEMP:  51;

GILMER         PTCLDY    38  22  52 CALM      30.31F
6HR MIN TEMP:  32; 6HR MAX TEMP:  50;

MINEOLA        PTCLDY    34  28  80 CALM      30.31F
TYLER          CLEAR     43  22  43 S9        30.30F WCI  38
6HR MIN TEMP:  39; 6HR MAX TEMP:  51;

LONGVIEW       CLEAR     32  28  85 SE7       30.32F WCI  26
6HR MIN TEMP:  32; 6HR MAX TEMP:  49;

MARSHALL       PTCLDY    30  24  78 CALM      30.35F
6HR MIN TEMP:  30; 6HR MAX TEMP:  50;

ATHENS         CLEAR     37  27  65 SE3       30.30S
PALESTINE      CLEAR     43  28  54 SE7       30.33S WCI  39
JACKSONVILLE   CLEAR     42  26  52 S7        30.33F WCI  38
HENDERSON      CLEAR     31  25  80 CALM      30.34S
6HR MIN TEMP:  31; 6HR MAX TEMP:  50;

CENTER         FAIR      33  29  85 CALM      30.35F
6HR MIN TEMP:  33; 6HR MAX TEMP:  53;

NACOGDOCHES    PTCLDY    30  25  80 CALM      30.33F
6HR MIN TEMP:  30; 6HR MAX TEMP:  50;

LUFKIN         PTCLDY    34  28  79 SE5       30.35F WCI  30
6HR MIN TEMP:  33; 6HR MAX TEMP:  51;

$$

SUPPLEMENTAL OBSERVATIONS (CENTRAL)

CITY           SKY/WX    TMP DP  RH WIND       PRES   REMARKS
LAKE TEXOMA      N/A     46  25  42 E3          N/A
CADDO GRASSLND   N/A     43  21  42 SE3         N/A
PAT MAYSE LAKE   N/A     45  18  33 E7          N/A
GREENVILLE       N/A     43  21  42 SE5         N/A
C1F1C2F2C3F3C4F4C5F5C6F6C7F7C8F8C9!


USA.gov is the U.S. government's official web portal to all federal, state and local government web resources and services.